User: anonymous   Login
Location: ?ejeti?ky
(50.4060°N, 14.9016°E)
Time: 14:55:37
(UTC+00:00)
Language:

STARLINK-1282 - Orbit

View from above orbital plane
View from above orbital plane
View from above satellite
View from above satellite

Ground track
Ground track

The orbit data is extracted from the following two-line orbital elements,

1 45409C 20019BB  21020.19013306  .00013292  00000-0  90958-3 0   208
2 45409  52.9990 271.5786 0001867  73.5114  61.4051 15.05600242    10
Epoch (UTC): 20 January 2021 04:33:47
Eccentricity: 0.0001867
inclination: 52.9990°
perigee height: 548 km
apogee height: 551 km
right ascension of ascending node: 271.5786°
argument of perigee: 73.5114°
revolutions per day: 15.05600242
mean anomaly at epoch: 61.4051°
orbit number at epoch: 1

The dashed part of the orbit path shows where the satellite is in the earth's shadow,  

DLR